Regional Weather Roundup
Issued by NWS Sioux Falls, SD

Home | Current Version | Previous Version | Text Only | Print | Product List | Glossary On
Versions: 1 2 3 4 5 6 7 8 9 10 11 12 13 14 15 16 17 18 19 20 21 22 23 24 25 26 27 28 29 30 31 32 33 34 35 36 37 38 39 40 41 42 43 44 45 46 47 48 49 50
000
ASUS43 KFSD 292002
RWRFSD

WEATHER ROUNDUP FOR SE SOUTH DAKOTA/SW MINNESOTA/NW IOWA
NATIONAL WEATHER SERVICE SIOUX FALLS SD
300 PM CDT FRI MAY 29 2015

NOTE: "FAIR" INDICATES FEW OR NO CLOUDS BELOW 12,000 FEET WITH NO
SIGNIFICANT WEATHER AND OR OBSTRUCTIONS TO VISIBILITY.


SDZ038>040-050-052>070-292100-
SOUTHEAST SOUTH DAKOTA

CITY           SKY/WX    TMP DP  RH WIND       PRES   REMARKS
BROOKINGS      CLOUDY    50  45  81 N22G30    30.04R
CHAMBERLAIN    CLOUDY    51  48  90 N25       30.13R
HURON          LGT RAIN  52  47  83 N24G32    30.10R
MADISON        MOCLDY    50  50 100 N23G32    30.02R
MITCHELL       CLOUDY    53  50  89 N23G31    30.07R
SIOUX FALLS    CLOUDY    56  53  90 N18G24    29.97S
WINNER         CLOUDY    53  47  79 N23G31    30.14R
YANKTON        CLOUDY    61  57  88 N24G30    29.96R
$$

MNZ071-072-080-081-089-090-097-098-292100-
SOUTHWEST MINNESOTA

CITY           SKY/WX    TMP DP  RH WIND       PRES   REMARKS
FAIRMONT       CLOUDY    68  61  77 N7        29.89S
JACKSON        LGT RAIN  63  61  94 NW22G32   29.92R
LUVERNE        LGT RAIN  55  52  88 N14G23    29.97S
MARSHALL       CLOUDY    52  45  76 N22G32    30.00R
MONTEVIDEO     DRIZZLE   54  54 100 N16G25    30.01R
PIPESTONE      RAIN      52  48  87 N17G25    29.99R
REDWOOD FALLS  LGT RAIN  61  60  97 NW12G20   29.94R
TRACY          LGT RAIN  53  52  97 NW20G28   29.99R
WINDOM         HVY RAIN  57  55  94 NW24      29.94R
WORTHINGTON    CLOUDY    55  50  82 N24       29.95R
$$

IAZ001>003-012>014-020>022-031-032-NEZ013-014-SDZ071-292100-
NORTHWEST IOWA

CITY           SKY/WX    TMP DP  RH WIND       PRES   REMARKS
DENISON        CLOUDY    75  66  73 SW12      29.88F
ESTHERVILLE    CLOUDY    68  63  84 E5        29.88F
SIOUX CITY     CLOUDY    78  59  51 W7        29.87F
SPENCER        CLOUDY    74  64  71 W9        29.89F
$$

ABBREVIATIONS USED IN REMARKS
   TC - TEMPERATURE IN CELSIUS
  WCI - WIND CHILL INDEX
   HX - HEAT INDEX
  VSB - VISIBILITY



USA.gov is the U.S. government's official web portal to all federal, state and local government web resources and services.